Weather in Kovalivka

Ukraine / Vinnytsia Region     49°01′07″N   28°53′20″E
temp.,
°C
wind,
m/s
gust,
m/s
humid.,
%
clouds,
%
prec.,
mm/h
press.,
hPa
HPBL,
m
15 may, sat
sat1500:00+9wsw359329 0.0 100880
03:00+9wsw34939 0.0 100956
06:00+8wsw349262 0.0 100960
09:00+11sw3783100 0.0 1011254
12:00+15wsw466888 0.3 1011981
15:00+16wsw566868 0.9 10111117
18:00+15wsw467212 0.0 1012840
21:00+12wsw22865 0.0 101212
16 may, sun
sun1600:00+10n11884 0.0 101210
03:00+10ese228954 0.0 101311
06:00+10ese33895 0.0 101233
09:00+16se46745 0.0 1012372
12:00+20sse4561100 0.1 1011968
15:00+21sse5654100 1.1 10101832
18:00+20se4666100 0.3 1009537
21:00+15se3378100 0.4 100928
17 may, mon
mon1700:00+15ese2276100 0.0 100824
03:00+13ne1182100 0.0 100710
06:00+13ne1186100 0.3 100711
09:00+15n3381100 0.3 1006251
12:00+17ene4475100 0.7 1006624
15:00+19nne446699 1.2 1005969
18:00+17ne4474100 0.1 1004589
21:00+13nne2289100 0.1 100412
18 may, tue
tue1800:00+12ese019256 0.0 100410
03:00+11sw119396 0.0 100310
06:00+11sw119670 0.8 100311
09:00+12wnw2497100 2.0 1003205
12:00+12wnw5995100 3.2 1005551
15:00+15wnw787799 3.4 1006908
18:00+13nw5978100 0.1 1006748
21:00+11w489088 0.4 1008181
19 may, wed
wed1900:00+11wnw51189100 0.1 1009332
03:00+8wnw4119495 0.1 1010241
06:00+8wnw4119597 0.0 1011307
09:00+12wnw697842 0.0 1011723
12:00+15wnw6761100 0.1 10121768
15:00+15nw575764 0.2 10121669
18:00+15wnw3458100 0.0 1012178
21:00+12nw3375100 0.0 101338